| time (UTC) | temp F | wind direction | speed knots | gust knots | rain 1hr in | rain 24hr in | rain mn in | humidity % | barometer mb |
| 20260505080018 | 68 | 203 | 0.9 | 0.0 | 0.00 | 0.00 | 0.14 | 92 | 1017.8 |
| 20260505074514 | 68 | 360 | 0.9 | 0.0 | 0.00 | 0.00 | 0.08 | 91 | 1017.5 |
| 20260505073009 | 69 | 360 | 1.7 | 0.0 | 0.00 | 0.00 | 0.04 | 90 | 1017.1 |
| 20260505071505 | 70 | 256 | 1.7 | 0.0 | 0.00 | 0.00 | 0.02 | 89 | 1016.8 |
| 20260505070108 | 71 | 90 | 0.9 | 0.0 | 0.00 | 0.00 | 0.02 | 88 | 1016.4 |
| 20260505064607 | 72 | 105 | 1.7 | 0.0 | 0.00 | 0.00 | 0.02 | 86 | 1016.2 |
| 20260505063053 | 73 | 113 | 2.6 | 0.0 | 0.00 | 0.00 | 0.00 | 82 | 1015.9 |
| 20260505061548 | 74 | 90 | 3.5 | 0.0 | 0.00 | 0.00 | 0.00 | 80 | 1015.8 |
| 20260505060044 | 75 | 80 | 3.5 | 0.0 | 0.00 | 0.00 | 0.00 | 76 | 1015.4 |
| 20260505054558 | 76 | 129 | 4.3 | 0.0 | 0.00 | 0.00 | 0.00 | 74 | 1015.1 |
| 20260505053039 | 77 | 119 | 4.3 | 0.0 | 0.00 | 0.00 | 0.00 | 70 | 1014.7 |
| 20260505051539 | 78 | 155 | 5.2 | 0.0 | 0.00 | 0.00 | 0.00 | 67 | 1014.5 |
| 20260505041513 | 82 | 101 | 2.6 | 0.0 | 0.00 | 0.00 | 0.00 | 61 | 1014.2 |
| 20260505040008 | 82 | 131 | 2.6 | 0.0 | 0.00 | 0.00 | 0.00 | 61 | 1014.2 |
| 20260505034504 | 82 | 321 | 2.6 | 0.0 | 0.00 | 0.00 | 0.00 | 64 | 1014.2 |
| 20260505033100 | 82 | 83 | 1.7 | 0.0 | 0.00 | 0.00 | 0.00 | 65 | 1014.3 |
| 20260505031555 | 82 | 355 | 1.7 | 0.0 | 0.00 | 0.00 | 0.00 | 67 | 1014.4 |
| 20260505024547 | 80 | 82 | 2.6 | 0.0 | 0.00 | 0.00 | 0.00 | 69 | 1014.8 |
| 20260505023042 | 80 | 201 | 1.7 | 0.0 | 0.00 | 0.00 | 0.00 | 70 | 1015.2 |
| 20260505021549 | 80 | 171 | 1.7 | 0.0 | 0.00 | 0.00 | 0.00 | 70 | 1015.4 |
| 20260505020048 | 79 | 231 | 1.7 | 0.0 | 0.00 | 0.00 | 0.00 | 71 | 1015.4 |
| 20260505014529 | 80 | 69 | 0.9 | 0.0 | 0.00 | 0.00 | 0.00 | 72 | 1015.5 |
| 20260505013024 | 79 | 22 | 2.6 | 0.0 | 0.00 | 0.00 | 0.00 | 73 | 1015.9 |
| 20260505011520 | 79 | 208 | 1.7 | 0.0 | 0.00 | 0.00 | 0.00 | 73 | 1016.2 |
| 20260505010107 | 77 | 270 | 1.7 | 0.0 | 0.00 | 0.00 | 0.00 | 75 | 1016.4 |
| 20260505004548 | 77 | 262 | 0.9 | 0.0 | 0.00 | 0.00 | 0.00 | 75 | 1016.6 |